Location: ???????
(54.6339°N, 39.4245°E)
Time: 14:45:08
(UTC+00:00)

ATLAS 3B R/B - Pass Details

Date: 19 May 2025
Orbit: 935 x 1258 km, 63.8° (Epoch: 20 June)

Event Time Altitude Azimuth Distance (km) Brightness Sun altitude
Exits shadow 21:30:07 11° 223° (SW) 3,015 4.6 -15.4°
Maximum altitude 21:37:24 85° 137° (SE) 1,241 3.0 -15.3°
Drops below altitude 10° 21:45:20 10° 49° (NE) 3,247 5.9 -15.2°
Sets 21:48:09 0° 50° (NE) 4,221 6.6 -15.1°
